Location: Krakow
(50.0830°N, 19.9170°E)
Time: 07:47:43
(UTC+02:00)

A-11 Canister half - Pass Details

Date: 18 March 2026
Orbit: 1523 x 1684 km, 47.3° (Epoch: 18 April)

Event Time Altitude Azimuth Distance (km) Brightness Sun altitude
Rises 16:14:06 0° 286° (WNW) 4,754 12.5 14.2°
Reaches altitude 10° 16:18:51 10° 266° (W) 3,737 13.1 13.5°
Maximum altitude 16:23:44 15° 234° (SW) 3,288 12.5 12.8°
Drops below altitude 10° 16:28:35 10° 202° (SSW) 3,688 11.6 12.0°
Sets 16:33:15 0° 181° (S) 4,657 11.8 11.3°
